Location: Favalello
(42.2939°N, 9.2706°E)
Time: 15:30:25
(UTC+00:00)

Cosmos 1553 Rocket - Pass Details

Date: 06 December 2019
Orbit: 942 x 1007 km, 82.9° (Epoch: 27 January)

Event Time Altitude Azimuth Distance (km) Brightness Sun altitude
Rises 17:44:11 0° 358° (N) 3,708 6.9 -20.3°
Reaches altitude 10° 17:46:52 10° 6° (N) 2,764 6.2 -20.8°
Enters shadow 17:52:31 40° 68° (ENE) 1,428 4.4 -21.9°
Exits shadow 17:59:20 - 147° (SSE) 2,956 6.3 -23.1°
Sets 18:01:30 0° 152° (SSE) 3,723 6.9 -23.5°
